Location: Acheville
(50.3840°N, 2.8827°E)
Time: 15:50:27
(UTC+00:00)

Cosmos 1821 Rocket - Pass Details

Date: 24 October 2021
Orbit: 944 x 1005 km, 82.9° (Epoch: 27 November)

Event Time Altitude Azimuth Distance (km) Brightness Sun altitude
Rises 17:15:03 0° 182° (S) 3,720 7.2 -6.5°
Reaches altitude 10° 17:17:34 10° 181° (S) 2,772 6.5 -6.9°
Maximum altitude 17:23:56 77° 96° (E) 1,029 4.0 -7.9°
Drops below altitude 10° 17:30:17 10° 12° (NNE) 2,762 6.2 -8.9°
Sets 17:32:48 0° 11° (NNE) 3,706 6.8 -9.2°
